Simultaneous Nadir Overpasses (SNOs) Predictions

Prediction of SNOs between AQUA and METOP-B Satellite Orbit:

Table of predicted SNOs for the next 14.0 days since TLE Epoch: 11/27/2021
Index Date (AQUA) Time (AQUA) Lat,Lon (AQUA) SZA (AQUA ) Date (METOP-B) Time (METOP-B) Lat,Lon (METOP-B) SZA (METOP-B ) Distance(km) Time Diff (sec)
1 11/27/2021 09:51:10 73.71, 26.70 94.83 11/27/2021 09:49:57 73.73, 26.65 94.86 2.97 73
2 11/27/2021 10:40:37 -73.80,-165.85 85.08 11/27/2021 10:40:37 -73.81,-165.83 85.06 1.72 0
3 11/27/2021 11:30:06 73.86, 1.65 95.00 11/27/2021 11:31:16 73.86, 1.61 94.99 0.98 70
4 11/30/2021 05:25:25 73.71, 93.13 95.32 11/30/2021 05:24:19 73.73, 93.06 95.34 3.02 66
5 11/30/2021 06:14:52 -73.80, -99.41 84.60 11/30/2021 06:14:59 -73.81, -99.43 84.58 1.59 7
6 11/30/2021 07:04:23 73.97, 67.84 95.59 11/30/2021 07:05:35 74.01, 68.38 95.62 16.93 72
7 12/03/2021 00:59:40 73.73, 159.54 95.76 12/03/2021 00:58:41 73.73, 159.46 95.77 2.68 59
8 12/03/2021 01:49:07 -73.81, -32.99 84.15 12/03/2021 01:49:21 -73.81, -33.03 84.16 1.12 14
9 12/03/2021 02:38:43 74.25, 133.65 96.31 12/03/2021 02:39:52 74.25, 135.39 96.29 52.57 69
10 12/05/2021 20:33:54 73.76,-134.08 96.17 12/05/2021 20:33:01 73.77,-134.03 96.18 1.76 53
11 12/05/2021 21:23:21 -73.84, 33.40 83.76 12/05/2021 21:23:41 -73.85, 33.49 83.74 3.26 20
12 12/05/2021 22:13:02 74.53,-160.59 96.98 12/05/2021 22:14:07 74.54,-157.45 96.94 92.99 65
13 12/08/2021 16:08:08 73.75, -67.61 96.47 12/08/2021 16:07:23 73.76, -67.64 96.49 1.48 45
14 12/08/2021 16:57:35 -73.82, 99.88 83.46 12/08/2021 16:58:03 -73.84, 99.88 83.43 2.53 28



Historial Predications of SNOs between AQUA and METOP-B
